EW7034 Weather Reports


Display with metric or nautical units.
time (UTC)temp
F
wind
direction
speed
MPH
gust
MPH
rain 1hr
in
rain 24hr
in
rain mn
in
humidity
%
barometer
mb
20181119153120 45 76 5.0 10.0 0.00 0.01 0.01 81 1022.1
20181119150139 45 109 0.0 7.0 0.00 0.01 0.01 79 1022.4
20181119144622 45 102 2.0 8.0 0.00 0.01 0.01 79 1022.5
20181119143057 44 105 6.0 10.0 0.00 0.01 0.01 77 1022.6
20181119141644 45 93 3.0 10.0 0.00 0.01 0.01 78 1022.8
20181119140054 44 85 4.0 12.0 0.00 0.01 0.01 78 1023.0
20181119134608 44 94 5.0 13.0 0.00 0.01 0.01 79 1022.9
20181119133040 44 109 5.0 10.0 0.00 0.01 0.01 80 1023.2
20181119131552 44 98 2.0 10.0 0.00 0.01 0.01 81 1023.4
20181119130105 44 107 4.0 10.0 0.00 0.01 0.01 81 1023.3
20181119124600 44 113 5.0 13.0 0.00 0.01 0.01 80 1023.4
20181119123036 44 116 3.0 13.0 0.00 0.01 0.01 80 1023.5
20181119121529 44 105 3.0 13.0 0.00 0.01 0.01 82 1023.4
20181119120034 44 138 3.0 9.0 0.01 0.01 0.01 83 1023.6
20181119114539 44 113 5.0 11.0 0.01 0.01 0.01 83 1023.6
20181119113027 44 111 3.0 9.0 0.01 0.01 0.01 83 1023.7
20181119111526 44 111 3.0 11.0 0.00 0.00 0.00 84 1023.9
20181119110057 44 109 2.0 9.0 0.00 0.00 0.00 85 1024.0
20181119104528 44 86 5.0 12.0 0.00 0.00 0.00 86 1024.0
20181119103039 44 106 2.0 11.0 0.00 0.00 0.00 88 1024.1
20181119101515 44 93 1.0 7.0 0.00 0.00 0.00 91 1024.1
20181119100025 44 104 0.0 3.0 0.00 0.00 0.00 92 1024.1
20181119094510 44 104 2.0 4.0 0.00 0.00 0.00 92 1024.2
20181119093030 43 93 0.0 3.0 0.00 0.00 0.00 93 1024.3
20181119091502 43 59 0.0 4.0 0.00 0.00 0.00 94 1024.5
20181119090244 42 344 0.0 0.0 0.00 0.00 0.00 94 1024.6
20181119084657 42 344 0.0 0.0 0.00 0.00 0.00 95 1024.6
20181119083238 41 344 0.0 0.0 0.00 0.00 0.00 95 1024.7
20181119081610 40 344 0.0 0.0 0.00 0.00 0.00 96 1024.8
20181119080221 40 344 0.0 0.0 0.00 0.00 0.00 96 1024.9
20181119074635 39 344 0.0 0.0 0.00 0.00 0.00 96 1024.9
20181119073155 39 344 0.0 0.0 0.00 0.00 0.00 95 1024.8
20181119071601 39 344 0.0 0.0 0.00 0.00 0.00 95 1024.8
20181119070142 39 344 0.0 0.0 0.00 0.00 0.00 95 1024.8
20181119064640 39 344 0.0 0.0 0.00 0.00 0.00 95 1025.1
20181119063124 38 344 0.0 1.0 0.00 0.00 0.00 95 1025.0
20181119061705 38 344 0.0 0.0 0.00 0.00 0.00 93 1025.0
20181119060125 38 344 0.0 2.0 0.00 0.00 0.00 94 1025.1
20181119054633 39 344 0.0 0.0 0.00 0.00 0.00 93 1024.9
20181119053139 39 344 0.0 3.0 0.00 0.00 0.00 95 1024.8
20181119051617 38 344 0.0 3.0 0.00 0.00 0.00 95 1025.0
20181119050119 38 344 0.0 2.0 0.00 0.00 0.00 95 1025.0
20181119044644 39 344 0.0 0.0 0.00 0.00 0.00 95 1024.9
20181119043104 38 344 0.0 1.0 0.00 0.00 0.00 96 1025.2
20181119041550 38 344 0.0 1.0 0.00 0.00 0.00 96 1025.2
20181119040112 38 344 0.0 2.0 0.00 0.00 0.00 95 1025.4
20181119034612 38 344 0.0 0.0 0.00 0.00 0.00 94 1025.3
20181119033055 39 344 1.0 3.0 0.00 0.00 0.00 95 1025.6
20181119031543 39 344 0.0 0.0 0.00 0.00 0.00 94 1025.7
20181119030051 40 344 0.0 3.0 0.00 0.00 0.00 94 1025.8
20181119024538 41 344 0.0 1.0 0.00 0.00 0.00 94 1026.0
20181119023104 40 344 0.0 4.0 0.00 0.00 0.00 95 1025.9
20181119021549 39 344 0.0 3.0 0.00 0.00 0.00 95 1026.1
20181119020034 39 344 0.0 0.0 0.00 0.00 0.00 94 1026.1
20181119014601 40 344 0.0 2.0 0.00 0.00 0.00 94 1026.4
20181119013035 40 344 0.0 0.0 0.00 0.00 0.00 95 1026.3
20181119011544 39 327 1.0 3.0 0.00 0.00 0.00 96 1026.3
20181119010042 39 327 0.0 0.0 0.00 0.00 0.00 95 1026.5
20181119004531 39 327 0.0 0.0 0.00 0.00 0.00 95 1026.6
20181119003032 40 327 0.0 3.0 0.00 0.00 0.00 96 1026.7
20181119001555 40 327 1.0 3.0 0.00 0.00 0.00 96 1026.9
20181119000012 40 327 0.0 3.0 0.00 0.00 0.00 96 1027.0
20181118234524 40 327 0.0 2.0 0.00 0.00 0.00 97 1027.0
20181118233008 40 327 0.0 3.0 0.00 0.00 0.00 96 1027.0
20181118231521 40 327 0.0 2.0 0.00 0.00 0.00 96 1026.9
20181118230018 40 327 0.0 1.0 0.00 0.00 0.00 96 1027.0
20181118224515 41 327 0.0 1.0 0.00 0.00 0.00 96 1027.1
20181118223011 42 327 0.0 1.0 0.00 0.00 0.00 97 1027.1
20181118221505 41 313 0.0 0.0 0.00 0.00 0.00 97 1027.3
20181118220007 40 313 0.0 2.0 0.00 0.00 0.00 96 1027.3
20181118214517 40 315 0.0 0.0 0.00 0.00 0.00 96 1027.4
20181118213006 40 315 0.0 2.0 0.00 0.00 0.00 96 1027.3
20181118211501 41 315 0.0 2.0 0.00 0.00 0.00 96 1027.4
20181118204649 42 315 0.0 2.0 0.00 0.00 0.00 95 1027.3
20181118203314 42 314 0.0 4.0 0.00 0.00 0.00 96 1027.4
20181118201706 42 101 0.0 1.0 0.00 0.00 0.00 96 1027.4
20181118200342 42 101 0.0 2.0 0.00 0.00 0.00 96 1027.4
20181118194639 42 101 0.0 8.0 0.00 0.00 0.00 96 1027.3
20181118193112 42 13 0.0 1.0 0.00 0.00 0.00 96 1027.4
20181118191649 42 13 0.0 5.0 0.00 0.00 0.00 96 1027.4
20181118190140 42 19 0.0 2.0 0.00 0.00 0.00 95 1027.3
20181118184645 43 19 0.0 1.0 0.00 0.00 0.00 96 1027.4
20181118183209 43 19 0.0 2.0 0.00 0.00 0.00 96 1027.5
20181118181649 43 19 0.0 0.0 0.00 0.00 0.00 96 1027.3
20181118180243 43 19 0.0 1.0 0.00 0.00 0.00 96 1027.4
20181118174634 43 13 0.0 1.0 0.00 0.00 0.00 95 1027.5
20181118173216 43 13 0.0 3.0 0.00 0.00 0.00 94 1027.4
20181118171725 43 13 0.0 4.0 0.00 0.00 0.00 94 1027.2
20181118170150 43 101 0.0 2.0 0.00 0.00 0.00 93 1027.5
20181118164628 44 101 0.0 0.0 0.00 0.00 0.00 93 1027.3
20181118163220 45 101 0.0 2.0 0.00 0.00 0.00 92 1027.4
20181118161651 45 101 1.0 3.0 0.00 0.00 0.00 92 1027.6
20181118160128 46 101 0.0 0.0 0.00 0.00 0.00 90 1027.5
20181118154603 47 101 0.0 1.0 0.00 0.00 0.00 90 1027.3